Location: St. Louis
(38.6270°N, 90.1994°W)
Time: 01:26:50
(UTC-06:00)

Courier 1B Rocket - Pass Details

Date: 02 December 2021
Orbit: 920 x 1202 km, 28.2° (Epoch: 16 January)

Event Time Altitude Azimuth Distance (km) Brightness Sun altitude
Rises 02:24:42 0° 257° (WSW) 3,547 - -53.1°
Reaches altitude 10° 02:27:37 10° 246° (WSW) 2,605 - -52.6°
Maximum altitude 02:32:51 29° 189° (S) 1,642 - -51.6°
Drops below altitude 10° 02:38:14 10° 132° (SE) 2,678 - -50.6°
Exits shadow 02:40:01 - 124° (SE) 3,243 8.1 -50.2°
Sets 02:41:17 0° 121° (ESE) 3,662 8.4 -50.0°
